Home > Weather > Kriens > Past weeks

Flag for Switzerland Past Weather in Kriens, Lucerne, Switzerland — Yesterday and Last 2 Weeks

Now
69 °F

Mild.


Feels Like: 69 °F
Forecast: 50 / 74 °F
Wind: 8 mph from Northeast

Location: Giswil

Current Time: Jun 30, 2016 at 12:36:38 PM

Latest Report: Jun 30, 2016 at 12:00 PM


Visibility: N/A

Pressure: 30.00 "Hg

Humidity: 76%

Dew Point: 61 °F

Location of KriensLocation

Past Weather in Kriens — Graph

°F

Kriens Temperature Yesterday

Maximum temperature yesterday: 78 °F (at 2:00 PM)
Minimum temperature yesterday: 58 °F (at 3:00 AM)
Average temperature yesterday: 67 °F

High & Low Weather Summary for the Past Weeks

 TemperatureHumidityPressure
High89 °F (Jun 23, 5:00 PM)100% (Jun 18, 4:00 AM)30.30 "Hg (Jun 18, 4:00 AM)
Low48 °F (Jun 18, 6:00 AM)45% (Jun 27, 3:00 PM)29.59 "Hg (Jun 15, 3:00 PM)
Average63 °F82%30.04 "Hg
* Reported Jun 15 10:00 AM — Jun 30 10:00 AM, Kriens, Weather by CustomWeather, © 2016

Note: Actual official high and low records may vary slightly from our data, if they occured in-between our weather recording intervals... More about our weather records

Advertising

Kriens Weather History for the Previous 24 Hours

Scroll right to see more
 ConditionsComfort  
Time TempWeatherWind HumidityBarometerVisibility
10:00 AM
Thu, Jun 30
69 °FMild.2 mph77%30.00 "HgN/A
9:00 AM65 °FMild.2 mph84%30.01 "HgN/A
8:00 AM63 °FMild.1 mph91%30.00 "HgN/A
7:00 AM61 °FCool.2 mph96%30.00 "HgN/A
6:00 AM62 °FCool.2 mph94%29.98 "HgN/A
5:00 AM64 °FMild.3 mph97%29.98 "HgN/A
4:00 AM65 °FMild.3 mph96%29.98 "HgN/A
3:00 AM65 °FMild.1 mph99%29.96 "HgN/A
2:00 AM65 °FMild.2 mph97%29.96 "HgN/A
1:00 AM65 °FMild.2 mph95%29.94 "HgN/A
12:00 AM64 °FMild.3 mph95%29.94 "HgN/A
11:00 PM
Wed, Jun 29
65 °FMild.3 mph94%29.95 "HgN/A
10:00 PM68 °FMild.3 mph92%29.93 "HgN/A
9:00 PM72 °FMild.1 mph82%29.89 "HgN/A
8:00 PM74 °FMild.3 mph72%29.88 "HgN/A
7:00 PM75 °FMild.1 mph73%29.87 "HgN/A
6:00 PM77 °FWarm.1 mph58%29.86 "HgN/A
2:00 PM78 °FWarm.5 mph55%29.92 "HgN/A
1:00 PM76 °FMild.5 mph56%29.94 "HgN/A
12:00 PM75 °FMild.3 mph58%29.96 "HgN/A
Weather by CustomWeather, © 2016

See weather overviewHow to use our weather pages